[[[{"header":{"parameterUnit":"kt","parameterCategory":2,"dx":1,"dy":1,"la1":30.253999710083008,"la2":30.299108505249023,"lo1":-89.0895004272461,"lo2":-89.04439544677734,"nx":28,"ny":28,"refTime":"2022-09-30T21:00:00:Z","depth":0,"parameterNumber":1,"parameterNumberName":"U-component_of_WINDS"},"data":[2.5201,2.5234,2.5261,2.5311,2.5344,2.5383,2.5406,2.5438,2.5471,2.5522,2.5557,2.5588,2.5633,2.5681,2.572,2.5734,2.5748,2.5741,2.5757,2.5767,2.577,2.5773,2.5766,2.5743,2.5743,2.5744,2.5744,2.5744,2.5208,2.524,2.5275,2.5326,2.5356,2.538,2.5423,2.5446,2.5481,2.5522,2.5557,2.5604,2.5645,2.5693,2.5738,2.5755,2.5769,2.5765,2.5764,2.5771,2.5782,2.5775,2.5753,2.5753,2.5753,2.5753,2.5753,2.5753,2.5227,2.5245,2.5292,2.5329,2.5363,2.5397,2.542,2.5457,2.5491,2.554,2.5566,2.5606,2.5652,2.5719,2.5748,2.5781,2.579,2.5795,2.5796,2.5796,2.5793,2.5789,2.579,2.579,2.579,2.5791,2.5791,0,2.5249,2.527,2.5305,2.5347,2.5376,2.5411,2.5449,2.5463,2.5518,2.5544,2.5584,2.5612,2.5667,2.5709,2.5757,2.5786,2.5814,2.582,2.5823,2.581,2.5794,2.5803,2.582,2.5819,2.582,2.582,2.582,2.582,2.527,2.5288,2.5349,2.537,2.5397,2.5429,2.5454,2.5501,2.5525,2.5578,2.5593,2.5635,2.567,2.5731,2.5775,2.5817,2.5831,2.5827,2.5837,2.5825,2.5831,2.5829,2.5831,2.5824,2.5824,2.5823,2.5823,0,2.5279,2.5323,2.5359,2.5418,2.5434,2.545,2.5502,2.5522,2.5556,2.5589,2.56,2.5653,2.5692,2.5737,2.579,2.5813,2.5843,2.5855,2.5828,2.5832,2.5834,2.5833,2.5832,2.5834,2.5859,2.5859,2.5858,0,2.5314,2.5336,2.5399,2.5418,2.5444,2.549,2.5515,2.5546,2.5586,2.5613,2.5651,2.5675,2.5728,2.576,2.5792,2.5825,2.5835,2.5854,2.5863,2.5851,2.5848,2.5864,2.5865,2.5881,2.5881,2.5881,2.5881,0,2.5323,2.5382,2.5413,2.5434,2.5499,2.5512,2.554,2.5585,2.5609,2.5647,2.5663,2.5705,2.5728,2.576,2.5801,2.5806,2.5843,2.5858,2.5862,2.5861,2.5867,2.5866,2.5854,2.5881,2.5881,2.5881,2.5881,0,2.5357,2.5394,2.5432,2.5487,2.5501,2.5521,2.5565,2.5592,2.5637,2.5659,2.5689,2.572,2.5751,2.5763,2.5808,2.5803,2.5824,2.5845,2.5846,2.5851,2.5863,2.585,2.5834,2.5834,2.5857,2.5857,2.5856,0,2.5356,2.5405,2.5444,2.548,2.5509,2.5549,2.5573,2.5611,2.5642,2.5672,2.5706,2.574,2.5758,2.5775,2.5791,2.5828,2.5835,2.5829,2.5872,2.5873,2.5859,2.5845,2.5831,2.5833,2.5854,2.5855,2.5855,0,2.536,2.5437,2.544,2.5466,2.5522,2.5547,2.5574,2.5617,2.5634,2.5673,2.5697,2.5745,2.5761,2.5788,2.5817,2.5832,2.5832,2.5847,2.5849,2.5843,2.5857,2.5844,2.5844,2.5848,2.5849,2.5849,2.5853,0,2.5401,2.5431,2.5442,2.5496,2.5521,2.5546,2.5592,2.5613,2.5638,2.567,2.5706,2.5748,2.5792,2.5804,2.5828,2.5848,2.5852,2.5868,2.5882,2.5873,2.5875,2.5876,2.5875,2.5875,2.5876,2.5876,0,0,2.5389,2.5432,2.5474,2.5501,2.5525,2.5566,2.5588,2.5617,2.5673,2.5689,2.5697,2.5771,2.5805,2.5844,2.5845,2.5863,2.5871,2.5872,2.5877,2.5877,2.5877,2.5879,2.5879,2.5877,2.5878,2.5878,2.5878,0,2.5413,2.5445,2.5466,2.5497,2.5545,2.5577,2.5582,2.5636,2.5657,2.5693,2.5726,2.5754,2.5811,2.5842,2.5866,2.5868,2.5892,2.5878,2.5864,2.5881,2.588,2.5879,2.5881,2.5881,2.5879,2.5879,2.5879,0,2.5424,2.5464,2.5479,2.5535,2.5566,2.5595,2.5622,2.565,2.5672,2.5715,2.575,2.578,2.5826,2.5857,2.5872,2.588,2.5909,2.5908,2.5905,2.5908,2.5927,2.5925,2.5924,2.5938,2.5938,2.5938,0,0,2.5439,2.5467,2.5523,2.5544,2.5561,2.5609,2.5629,2.5655,2.5695,2.5711,2.5749,2.5787,2.5821,2.5843,2.5877,2.5904,2.5918,2.5913,2.591,2.5908,2.5909,2.5927,2.5926,2.5938,2.5938,2.5938,0,0,2.5446,2.5512,2.553,2.5559,2.5595,2.5652,2.5663,2.5687,2.5722,2.5724,2.5771,2.5783,2.5813,2.584,2.5836,2.5883,2.5896,2.5898,2.5863,2.586,2.5858,2.585,2.5868,0,0,0,0,0,2.5494,2.5504,2.5519,2.5531,2.5602,2.5644,2.5653,2.5692,2.57,2.5708,2.5744,2.5768,2.5848,2.5845,2.5856,2.586,2.5939,2.5939,2.5939,2.5901,2.5897,2.5894,0,0,0,0,0,0,2.5498,2.5512,2.5519,2.5576,2.5592,2.5644,2.5667,2.5678,2.5701,2.5705,2.576,2.577,2.5803,2.5842,2.5851,2.5854,2.5865,2.5939,2.5939,2.5939,2.5899,2.5897,2.5894,0,0,0,0,0,2.5502,2.5514,2.5617,2.5576,2.559,2.5644,2.5667,2.5676,2.5694,2.575,2.576,2.5721,2.5802,2.5813,2.5847,2.5849,2.5859,2.5862,2.5939,2.5939,2.5939,2.5898,0,0,0,0,0,0,2.5506,2.5523,2.5621,2.5627,2.5575,2.5642,2.5654,2.5675,2.5739,2.5749,2.5713,2.5715,2.5802,2.581,2.5818,2.5845,2.5854,2.5857,2.586,2.5939,2.5939,2.5939,0,0,0,0,0,0,2.5517,2.5527,2.5624,2.562,2.5626,2.564,2.565,2.5685,2.5739,2.5699,2.5703,2.5713,2.579,2.5808,2.5815,2.5867,2.585,2.5853,2.5856,2.5857,2.5939,2.5939,0,0,0,0,0,0,2.5522,2.5531,2.5619,2.5623,2.5629,2.5697,2.5671,2.5742,2.5735,2.5695,2.5736,2.5736,2.5788,2.5795,2.5812,2.5862,2.5866,2.585,2.5852,2.5854,2.5855,0,0,0,0,0,0,0,2.5526,2.5457,2.5587,2.5626,2.5631,2.5681,2.5682,2.5684,2.5735,2.5735,2.5736,2.5736,2.5831,2.5835,2.5839,2.5857,0,0,2.585,2.5851,0,0,0,0,0,0,0,0,2.5454,2.5456,2.5587,2.5588,2.5589,2.5681,2.5682,2.5683,2.5735,2.5735,2.5735,2.5736,2.5832,2.5835,2.5838,0,0,0,0,0,0,0,0,0,0,0,0,0,0,0,2.5587,2.5588,0,2.5681,2.5682,2.5683,2.5735,2.5735,2.5735,2.5736,2.5833,2.5835,2.5838,0,0,0,0,0,0,0,0,0,0,0,0,0,0,0,0,0,0,0,0,0,0,0,0,0,0,0,0,0,0,0,0,0,0,0,0,0,0,0,0,0,0,0,0,0,0,0,0,0,0,0,0,0,0,0,0,0,0,0,0,0,0,0,0,0,0,0,0,0]}],[{"header":{"parameterUnit":"kt","parameterCategory":2,"dx":1,"dy":1,"la1":30.253999710083008,"la2":30.299108505249023,"lo1":-89.0895004272461,"lo2":-89.04439544677734,"nx":28,"ny":28,"refTime":"2022-09-30T21:00:00:Z","depth":0,"parameterNumber":2,"parameterNumberName":"V-component_of_WINDS"},"data":[-7.9724,-7.978,-7.9807,-7.9883,-7.9918,-7.9974,-8.0002,-8.004,-8.0076,-8.0143,-8.0186,-8.0214,-8.0258,-8.0312,-8.0358,-8.0369,-8.0387,-8.0391,-8.0403,-8.0366,-8.0362,-8.0358,-8.0348,-8.0395,-8.0395,-8.044,-8.044,-8.044,-7.9702,-7.9739,-7.9786,-7.9848,-7.9889,-7.9902,-7.9951,-7.9983,-8.0031,-8.0075,-8.0117,-8.0177,-8.0226,-8.0267,-8.0317,-8.0342,-8.035,-8.0354,-8.0353,-8.036,-8.032,-8.0309,-8.0348,-8.0348,-8.0348,-8.0348,-8.0348,-8.0348,-7.9669,-7.9701,-7.9754,-7.9804,-7.9842,-7.9883,-7.9917,-7.9952,-7.9995,-8.0052,-8.007,-8.0123,-8.0168,-8.0237,-8.0265,-8.0306,-8.0304,-8.0315,-8.0318,-8.0321,-8.0323,-8.026,-8.0315,-8.0315,-8.0315,-8.0315,-8.0315,0,-7.9653,-7.9673,-7.9717,-7.9771,-7.9808,-7.985,-7.9893,-7.9914,-7.9957,-7.999,-8.0041,-8.0073,-8.0136,-8.0184,-8.0234,-8.0259,-8.0272,-8.0274,-8.0282,-8.0276,-8.0267,-8.0275,-8.0212,-8.0272,-8.0271,-8.0271,-8.0271,-8.0271,-7.9623,-7.9656,-7.972,-7.9749,-7.9777,-7.9821,-7.9852,-7.9887,-7.9917,-7.9972,-7.9997,-8.0046,-8.0086,-8.0159,-8.0193,-8.0239,-8.0245,-8.0266,-8.0251,-8.0245,-8.0248,-8.0246,-8.0251,-8.0268,-8.0268,-8.0269,-8.0269,0,-7.9605,-7.9643,-7.97,-7.9759,-7.9774,-7.9806,-7.9855,-7.9886,-7.9914,-7.996,-7.9972,-8.0015,-8.0061,-8.0093,-8.0149,-8.0164,-8.0217,-8.022,-8.0204,-8.0207,-8.023,-8.0229,-8.0297,-8.0309,-8.026,-8.026,-8.026,0,-7.9594,-7.9634,-7.9689,-7.9719,-7.9766,-7.98,-7.9844,-7.9871,-7.991,-7.9947,-7.9966,-7.9999,-8.0033,-8.0071,-8.0092,-8.014,-8.015,-8.0164,-8.017,-8.0163,-8.0162,-8.0178,-8.0176,-8.0177,-8.0177,-8.0176,-8.0176,0,-7.9562,-7.9635,-7.9686,-7.9708,-7.9771,-7.9794,-7.982,-7.9863,-7.989,-7.9931,-7.995,-7.9993,-8.0017,-8.005,-8.0077,-8.0066,-8.0135,-8.0125,-8.015,-8.015,-8.0163,-8.0162,-8.0216,-8.0175,-8.0175,-8.0175,-8.0175,0,-7.9558,-7.9601,-7.9667,-7.9721,-7.9738,-7.9769,-7.9817,-7.985,-7.9893,-7.9909,-7.994,-7.9955,-7.9998,-7.9987,-8.0047,-8.0026,-8.0048,-8.0065,-8.0067,-8.0073,-8.006,-8.0088,-8.0135,-8.0142,-8.0079,-8.0078,-8.0078,0,-7.9513,-7.9587,-7.9617,-7.9676,-7.9715,-7.9737,-7.9772,-7.9808,-7.9832,-7.9868,-7.9893,-7.9932,-7.993,-7.9945,-7.9971,-7.9998,-8.0025,-7.9995,-8.0045,-8.0046,-8.0036,-8.008,-8.008,-8.0121,-8.0068,-8.0069,-8.0069,0,-7.9481,-7.9557,-7.9565,-7.9593,-7.9646,-7.9676,-7.9715,-7.9762,-7.9784,-7.982,-7.9854,-7.9906,-7.9908,-7.9933,-7.9948,-7.9973,-8.0008,-7.997,-7.9971,-7.9978,-8.0064,-8.0065,-8.0071,-8.0013,-8.0014,-8.0015,-8.0061,0,-7.9472,-7.9512,-7.9535,-7.9591,-7.9619,-7.9656,-7.969,-7.9715,-7.9729,-7.9753,-7.9801,-7.9834,-7.9877,-7.989,-7.9902,-7.9948,-7.9945,-7.9944,-7.9935,-7.9962,-7.9979,-7.9985,-7.9909,-7.9909,-7.9909,-7.9909,0,0,-7.942,-7.9477,-7.9505,-7.9544,-7.957,-7.9589,-7.9626,-7.9652,-7.9703,-7.9721,-7.9716,-7.9794,-7.9819,-7.9874,-7.9885,-7.99,-7.9912,-7.9899,-7.9949,-7.9953,-7.9957,-7.9974,-7.998,-7.9908,-7.9908,-7.9908,-7.9908,0,-7.9423,-7.9453,-7.9489,-7.9518,-7.9563,-7.9586,-7.9595,-7.964,-7.9656,-7.9702,-7.9715,-7.9746,-7.9804,-7.9832,-7.9853,-7.9895,-7.9901,-7.9904,-7.9918,-7.9947,-7.9951,-7.9955,-7.9972,-7.9978,-7.9908,-7.9908,-7.9908,0,-7.9399,-7.9435,-7.9455,-7.9512,-7.954,-7.9577,-7.9577,-7.9614,-7.9641,-7.9655,-7.9699,-7.9721,-7.9758,-7.9803,-7.9824,-7.982,-7.989,-7.9871,-7.9872,-7.9875,-7.9904,-7.9909,-7.9914,-7.9852,-7.9851,-7.9851,0,0,-7.9397,-7.9433,-7.9479,-7.9515,-7.9532,-7.9566,-7.9587,-7.9603,-7.9637,-7.965,-7.9677,-7.9709,-7.9744,-7.9765,-7.9799,-7.9844,-7.9854,-7.9863,-7.9865,-7.9868,-7.9871,-7.99,-7.9906,-7.985,-7.985,-7.985,0,0,-7.9395,-7.9451,-7.9459,-7.9505,-7.9539,-7.9584,-7.9604,-7.9615,-7.9648,-7.9647,-7.9671,-7.968,-7.9723,-7.9742,-7.9724,-7.9796,-7.9786,-7.9791,-7.9782,-7.9786,-7.9788,-7.9783,-7.9725,0,0,0,0,0,-7.9415,-7.9445,-7.9452,-7.9464,-7.9534,-7.9581,-7.959,-7.9612,-7.9607,-7.9623,-7.9648,-7.9652,-7.9738,-7.9723,-7.9733,-7.9753,-7.9835,-7.9838,-7.984,-7.9839,-7.9843,-7.9846,0,0,0,0,0,0,-7.942,-7.9435,-7.9451,-7.9497,-7.9513,-7.958,-7.9576,-7.9583,-7.9606,-7.9606,-7.9648,-7.9653,-7.9671,-7.9718,-7.9728,-7.9746,-7.9722,-7.9836,-7.9838,-7.984,-7.984,-7.9843,-7.9846,0,0,0,0,0,-7.9424,-7.9436,-7.9542,-7.9497,-7.951,-7.9548,-7.9575,-7.9581,-7.9598,-7.9635,-7.9641,-7.9613,-7.9671,-7.9681,-7.9724,-7.9741,-7.9716,-7.9719,-7.9838,-7.9839,-7.9841,-7.9842,0,0,0,0,0,0,-7.9427,-7.9441,-7.9546,-7.9551,-7.9487,-7.9545,-7.9554,-7.9579,-7.9626,-7.9633,-7.9602,-7.9602,-7.9672,-7.9679,-7.9686,-7.9739,-7.9711,-7.9714,-7.9716,-7.9839,-7.984,-7.9842,0,0,0,0,0,0,-7.9435,-7.9445,-7.9548,-7.9534,-7.9538,-7.9541,-7.955,-7.9588,-7.9626,-7.959,-7.9592,-7.9601,-7.966,-7.9678,-7.9683,-7.9742,-7.9707,-7.971,-7.9712,-7.9714,-7.984,-7.9841,0,0,0,0,0,0,-7.944,-7.9449,-7.9533,-7.9536,-7.9539,-7.9596,-7.9575,-7.9644,-7.9617,-7.9587,-7.9615,-7.9614,-7.9659,-7.9665,-7.9681,-7.9738,-7.9741,-7.9707,-7.9709,-7.9711,-7.9712,0,0,0,0,0,0,0,-7.9444,-7.9378,-7.9516,-7.9537,-7.954,-7.9597,-7.9598,-7.9599,-7.9617,-7.9616,-7.9615,-7.9615,-7.9688,-7.9691,-7.9695,-7.9734,0,0,-7.9706,-7.9708,0,0,0,0,0,0,0,0,-7.9375,-7.9377,-7.9516,-7.9518,-7.9519,-7.9597,-7.9598,-7.9599,-7.9617,-7.9616,-7.9616,-7.9615,-7.9689,-7.9692,-7.9695,0,0,0,0,0,0,0,0,0,0,0,0,0,0,0,-7.9517,-7.9517,0,-7.9597,-7.9598,-7.9599,-7.9617,-7.9616,-7.9616,-7.9615,-7.969,-7.9692,-7.9694,0,0,0,0,0,0,0,0,0,0,0,0,0,0,0,0,0,0,0,0,0,0,0,0,0,0,0,0,0,0,0,0,0,0,0,0,0,0,0,0,0,0,0,0,0,0,0,0,0,0,0,0,0,0,0,0,0,0,0,0,0,0,0,0,0,0,0,0,0]}]]]